Hourly Data Report for October 20, 2013

All times are specified in Local Standard Time (LST). Add 1 hour to adjust for Daylight Saving Time where and when it is observed.

QIKIQTARJUAQ A
NUNAVUT

67°32'48.000" N
64°01'54.000" W
5.50 m
2400577
YVM

Download Data

Hourly Data (October 2013)
Hourly Data Report for October 20, 2013
Temp Definition
°C
Dew Point Temp Definition
°C
Rel Hum Definition
%
Wind Dir Definition
10's deg

Wind Spd Definition
km/h
Visibility Definition
km
Stn Press Definition
kPa
Hmdx Definition


Wind Chill Definition


Weather Definition


TIME
00:00 Legend Double Dagger -2.8 -5.0 85   0 16.1 101.84     LegendNANA
01:00 Legend Double Dagger -2.6 -5.1 83 LegendMM 4 16.1 101.82   -4 LegendNANA
02:00 Legend Double Dagger -1.7 -3.6 87   0 16.1 101.84     LegendNANA
03:00 Legend Double Dagger -3.7 -5.0 91 9 5 16.1 101.85   -6 LegendNANA
04:00 Legend Double Dagger -2.5 -4.7 85 8 5 16.1 101.86   -4 LegendNANA
05:00 Legend Double Dagger -2.7 -4.5 88   0 16.1 101.87     LegendNANA
06:00 Legend Double Dagger -3.1 -4.9 87 LegendMM 4 16.1 101.87   -5 LegendNANA
07:00 Legend Double Dagger -2.3 -3.7 90 21 5 16.1 101.86   -4 LegendNANA
08:00 Legend Double Dagger -2.0 -3.6 89 LegendMM 4 16.1 101.85   -3 LegendNANA
09:00 Legend Double Dagger -2.3 -4.3 86 LegendMM 4 16.1 101.86   -4 LegendNANA
10:00 Legend Double Dagger -2.6 -5.6 80 14 8 16.1 101.86   -6 LegendNANA
11:00 Legend Double Dagger -2.4 -5.2 81 LegendMM 4 16.1 101.86   -4 LegendNANA
12:00 Legend Double Dagger -2.9 -4.4 90 25 4 16.1 101.86   -4 LegendNANA
13:00 Legend Double Dagger -2.3 -5.1 82   0 16.1 101.86     LegendNANA
14:00 Legend Double Dagger -3.4 -6.0 82 17 5 16.1 101.87   -5 LegendNANA
15:00 Legend Double Dagger -1.8 -3.1 91 19 17 16.1 101.88   -7 LegendNANA
16:00 Legend Double Dagger -1.6 -2.4 94 21 11 16.1 101.88   -5 LegendNANA
17:00 Legend Double Dagger -1.4 -2.2 94 21 9 16.1 101.88   -5 LegendNANA
18:00 Legend Double Dagger -1.2 -2.0 94 20 13 16.1 101.87   -5 LegendNANA
19:00 Legend Double Dagger -1.1 -2.1 93 20 15 16.1 101.86   -6 LegendNANA
20:00 Legend Double Dagger -0.8 -1.7 94 21 9 16.1 101.87   -4 LegendNANA
21:00 Legend Double Dagger -0.8 -1.7 94 22 11 16.1 101.88   -5 LegendNANA
22:00 Legend Double Dagger -0.9 -1.2 98 22 15 6.4 101.86   -6 LegendNANA
23:00 Legend Double Dagger -1.0 -1.3 98 20 15 8.1 101.82   -6 LegendNANA

Notes on Data Quality.

Legend

  • E = Estimated
  • M = Missing
  • NA = Not Available
  • ‡ = Partner data that is not subject to review by the National Climate Archives
Date modified: